Location: Bramevaque
(42.9773°N, 0.5757°E)
Time: 21:43:55
(UTC+00:00)

SPOT 3 Rocket - Pass Details

Date: 15 May 2026
Orbit: 774 x 790 km, 98.5° (Epoch: 10 June)

Event Time Altitude Azimuth Distance (km) Brightness Sun altitude
Exits shadow 21:09:26 30° 149° (SSE) 1,372 4.2 -17.4°
Maximum altitude 21:11:59 69° 74° (ENE) 831 3.5 -17.7°
Drops below altitude 10° 21:17:06 10° 351° (N) 2,333 6.9 -18.3°
Sets 21:19:25 0° 349° (N) 3,263 7.9 -18.5°
